Theta_e
316 316 316 316 317 319 318 319 318 318 317 317 317 316 315 314 314 316 317 318 318 317 316 317 318 317 319 318 319 319 319 319 320 320 321 321 322 322 323 323 325 326 326 327 327 324 324 326 327 329 330 333 330 327 329 331 331 332 329 325 320 313 309 314 321 322 324 324 323 323 323 324 323 322 322 322 324 324 321 321 321 319 319 318 317 320
316 315 317 318 319 319 319 319 318 317 318 317 316 315 315 314 315 317 318 317 318 317 316 317 317 317 319 318 319 319 319 319 320 320 320 321 321 321 322 322 323 327 326 326 326 325 325 325 328 332 333 333 329 324 326 330 333 332 331 328 320 312 309 316 324 324 322 323 323 322 322 322 322 321 321 322 323 321 315 311 311 310 310 311 311 313
315 315 317 319 319 318 318 318 317 317 318 317 315 315 314 314 315 317 319 318 318 317 316 317 317 317 319 319 319 319 320 319 319 319 320 320 321 320 320 321 322 325 326 327 328 327 326 325 328 333 332 330 327 323 323 328 330 329 330 329 322 314 310 315 321 322 322 323 322 322 321 320 321 322 320 320 321 320 315 309 309 309 308 314 319 317
314 315 318 318 317 317 317 317 317 317 317 316 316 314 313 315 315 314 317 319 318 317 317 318 317 318 319 319 319 320 320 319 319 319 320 320 320 320 320 320 321 323 325 329 331 329 325 325 329 331 326 323 323 321 324 329 326 324 328 327 321 316 312 311 316 321 322 318 317 319 320 319 318 316 315 317 319 320 319 313 310 308 308 314 320 320
314 316 317 317 316 316 317 318 318 316 315 317 317 315 314 316 315 315 317 320 320 319 319 317 315 316 318 318 318 320 319 319 320 319 320 320 320 321 320 320 321 322 323 326 329 328 328 330 332 329 321 318 322 320 326 332 326 323 328 326 320 316 312 309 313 319 318 312 312 314 316 316 314 314 316 319 320 321 320 317 314 311 310 316 319 320
314 317 317 316 316 315 316 318 318 317 315 316 318 318 316 316 317 318 318 319 318 317 318 317 313 313 316 316 317 318 319 319 319 319 319 320 320 320 320 321 323 323 324 324 326 326 328 331 333 332 325 320 321 321 326 333 330 327 327 324 320 317 312 310 312 314 312 311 314 314 316 316 315 317 320 321 321 320 319 319 318 314 312 316 319 320
315 316 316 315 316 316 316 317 318 318 315 314 317 318 318 317 317 318 318 317 315 314 318 319 314 313 314 316 317 318 319 319 319 319 318 319 318 318 319 319 320 321 322 324 325 325 325 328 332 334 331 327 324 322 324 330 331 330 328 324 321 317 311 311 313 311 311 315 316 315 316 317 317 319 321 320 320 319 318 317 317 316 314 315 316 318
316 315 315 315 316 316 316 316 317 319 315 315 319 318 317 316 316 318 318 316 315 315 317 318 316 314 313 315 317 318 318 319 319 319 319 320 318 318 318 318 318 319 319 321 323 323 323 328 331 333 334 332 330 328 325 325 328 331 330 327 322 316 312 312 313 311 312 317 317 316 318 317 317 320 319 319 319 317 317 318 318 318 318 317 317 318
317 315 315 315 316 316 316 316 318 318 316 316 319 318 317 317 316 318 317 316 317 315 314 315 316 314 312 314 317 318 318 318 318 318 318 319 319 319 318 319 319 318 319 320 321 322 323 325 328 332 334 333 333 332 326 323 323 327 332 329 320 315 313 313 314 311 313 318 318 317 318 317 317 319 317 317 318 317 316 318 318 319 318 316 315 315
317 315 315 315 315 315 315 316 317 317 318 318 318 318 317 317 317 318 317 316 316 315 313 315 316 314 313 314 315 316 317 317 318 317 318 319 320 320 319 319 320 320 320 320 320 321 322 323 325 329 333 333 333 332 329 327 324 325 330 326 318 316 314 314 316 313 313 318 319 318 318 317 318 319 317 317 318 317 317 317 317 318 316 315 313 312
316 315 315 314 315 315 315 316 316 316 317 318 318 316 316 317 317 317 317 316 315 314 314 315 315 314 314 314 314 315 316 318 318 317 318 319 319 319 320 320 319 319 320 320 320 320 321 322 323 327 332 333 332 332 333 333 329 326 326 323 319 317 315 315 316 313 313 317 319 319 319 317 318 318 317 318 318 318 318 318 317 318 318 317 313 310
315 314 314 314 314 315 314 315 316 317 316 317 317 316 316 316 316 316 316 316 315 314 314 315 315 315 313 313 314 316 317 318 318 318 319 319 318 319 319 318 319 319 320 320 320 321 320 320 320 324 330 333 333 332 333 334 331 326 323 321 320 318 316 316 316 314 313 315 318 321 319 317 318 318 317 319 319 319 319 319 318 319 318 317 315 312
315 314 314 314 314 314 313 312 314 316 315 316 316 315 315 314 315 316 316 315 315 315 315 315 315 314 313 314 316 317 317 318 318 317 318 318 319 319 317 318 319 319 319 319 321 322 321 320 319 322 329 332 333 332 332 333 332 327 323 322 320 318 318 317 317 316 313 313 318 321 320 318 318 317 317 318 319 319 319 319 318 318 319 318 317 316
313 314 314 314 314 314 314 312 312 314 314 315 315 315 314 314 315 316 315 315 314 314 315 315 315 314 313 314 316 318 317 317 317 317 317 318 318 318 317 318 319 320 320 320 322 324 323 322 320 322 328 331 332 332 332 333 331 328 325 322 320 319 319 318 317 316 314 313 318 321 320 319 318 318 318 318 319 319 318 318 318 317 318 319 318 318
311 312 313 314 315 314 314 313 313 314 315 316 316 315 314 314 315 315 314 313 313 313 314 315 315 313 312 315 318 318 318 317 316 316 317 317 318 318 318 318 319 320 321 321 323 325 325 324 324 326 330 330 332 332 332 331 331 329 327 323 321 321 319 318 318 316 314 313 317 321 321 319 319 319 318 318 318 319 318 318 319 317 317 319 318 319
311 311 314 314 315 314 314 314 315 314 314 315 316 315 314 314 314 314 313 314 313 313 313 314 314 314 315 317 318 318 317 316 315 316 316 317 317 318 317 318 319 321 321 321 323 325 326 326 327 328 329 329 330 330 331 331 330 329 328 325 324 323 320 318 318 316 315 313 315 320 321 321 320 319 318 318 318 319 319 318 319 317 316 318 318 320
311 311 314 314 314 314 314 315 315 314 313 314 314 314 315 316 315 313 313 314 314 313 313 313 313 314 315 316 317 317 316 315 316 315 316 317 318 318 318 319 319 320 322 321 322 324 325 326 327 327 328 328 329 329 330 330 330 329 329 327 325 325 323 322 319 317 315 313 313 317 320 321 321 319 319 318 317 319 319 319 319 318 317 318 318 320
313 312 313 314 313 314 315 315 315 315 314 313 313 314 315 315 315 314 313 313 314 314 314 313 312 313 313 314 316 316 315 315 315 315 316 317 317 318 319 319 319 320 321 321 322 322 324 325 326 326 326 327 327 328 329 329 329 329 328 326 325 325 325 325 323 320 318 314 313 316 318 320 321 321 320 319 317 319 320 320 319 318 318 317 317 319
315 313 313 313 313 314 315 314 313 314 315 313 313 314 314 314 313 313 313 313 314 314 314 313 312 312 311 313 315 315 315 316 314 314 316 316 316 318 318 319 319 320 320 320 321 322 322 323 324 325 325 326 327 327 327 327 327 327 327 326 326 326 326 326 325 325 323 319 317 315 314 316 319 320 320 320 319 319 320 320 319 319 319 318 317 319
316 313 312 313 313 314 314 313 312 312 314 314 314 314 314 313 313 312 313 313 314 314 314 313 312 312 313 314 315 315 316 316 315 315 315 316 316 317 317 318 318 319 319 319 319 320 321 321 322 323 323 324 325 326 327 327 326 326 326 326 327 326 326 326 326 327 326 324 322 318 316 318 318 318 319 320 321 321 320 320 319 319 319 319 318 319
315 314 313 313 313 314 313 313 313 312 313 313 314 313 314 314 314 314 313 313 313 313 313 314 313 312 314 316 315 316 317 317 316 316 315 316 316 317 318 318 317 318 317 317 317 318 318 319 320 320 321 321 322 323 324 325 325 325 326 325 325 326 326 326 326 326 325 324 322 320 321 322 319 320 321 320 319 321 322 320 319 318 319 319 319 319
313 313 313 313 313 312 313 314 314 314 314 314 314 314 314 314 314 314 314 313 313 312 312 313 313 313 315 316 315 315 316 317 316 316 316 316 317 317 318 318 317 317 316 316 316 316 317 317 317 318 319 320 320 320 320 321 323 324 324 324 324 325 325 325 325 325 325 325 323 322 323 322 319 321 323 320 318 320 322 321 318 317 317 318 319 319
313 313 313 313 312 311 312 313 314 314 314 314 314 314 315 315 314 313 314 314 313 313 312 313 313 314 316 317 316 316 316 316 316 316 317 316 317 318 318 317 317 316 316 315 315 315 316 315 316 316 317 318 318 318 319 319 320 320 321 321 322 323 323 323 324 324 324 325 324 324 324 323 320 320 320 318 316 316 318 319 318 318 318 318 318 318
313 312 311 310 310 310 311 312 312 313 313 313 313 314 314 314 313 313 313 314 314 314 313 314 313 314 317 317 316 317 316 317 316 315 316 316 317 317 317 317 316 316 316 316 315 315 315 314 314 314 314 314 315 315 315 316 317 317 318 318 319 320 320 321 321 322 323 324 324 324 324 324 323 323 322 321 319 316 315 316 317 318 317 318 319 319
312 311 311 310 310 311 311 311 311 312 312 312 313 313 313 313 314 314 314 314 315 314 313 314 313 313 316 317 316 316 316 315 316 315 314 315 317 317 317 317 316 316 316 316 315 314 314 314 313 313 313 313 313 312 312 312 313 314 314 314 315 316 317 318 319 321 323 322 322 323 323 323 323 323 323 322 321 320 319 319 319 318 317 318 318 318
312 312 312 311 311 312 312 311 310 311 312 312 313 313 313 312 314 315 315 314 315 315 314 314 313 313 315 316 314 315 315 314 315 315 314 315 316 317 317 317 316 316 316 316 315 315 314 314 313 313 313 312 313 312 311 312 311 311 310 310 311 311 312 313 314 317 319 319 319 319 320 322 323 323 323 322 322 322 322 322 322 321 320 320 320 319
311 312 312 311 311 312 311 310 310 311 312 312 312 313 313 313 313 314 314 313 314 314 313 314 314 314 315 314 314 315 315 314 315 315 314 315 316 316 316 316 315 315 315 316 316 315 314 314 314 313 313 312 312 312 312 312 312 312 311 310 310 309 308 309 310 311 312 313 314 313 313 316 318 319 322 322 322 323 324 324 324 323 322 322 321 321
310 311 311 312 312 311 311 311 310 310 310 310 311 312 312 313 313 313 313 313 314 313 312 313 314 314 314 314 314 314 314 314 314 315 314 314 315 316 315 314 314 314 314 315 315 315 315 314 314 313 312 312 312 312 312 312 312 312 312 312 311 308 307 307 308 309 309 310 310 310 310 311 312 313 315 316 316 317 318 320 321 323 323 322 321 321
310 310 311 311 311 311 310 311 310 310 310 310 310 311 311 312 313 313 313 313 313 313 313 313 314 314 314 313 313 313 314 314 314 314 314 314 314 315 314 313 313 313 313 313 314 315 315 314 314 313 312 312 311 311 311 311 312 312 312 312 311 309 306 306 307 308 310 310 309 309 309 310 310 311 311 311 312 312 313 312 314 317 319 320 320 320
310 310 311 311 310 310 310 310 310 310 310 310 310 311 311 311 312 312 312 312 313 313 313 313 315 315 314 313 313 313 313 313 313 313 313 313 313 314 313 313 313 312 312 312 313 314 314 313 313 313 312 312 311 310 310 310 310 311 311 311 310 308 306 305 306 307 308 309 308 307 307 307 307 308 308 309 309 310 310 310 310 311 314 318 321 321
310 310 310 310 309 309 309 309 309 309 309 309 310 310 310 311 311 311 312 312 312 312 312 313 315 315 313 313 314 313 313 312 312 312 312 312 313 313 313 313 313 312 312 312 313 313 312 312 312 312 312 311 310 310 310 310 309 310 310 309 308 308 307 306 306 307 307 307 305 305 306 306 305 305 305 305 307 309 311 312 314 315 315 317 318 319
310 310 310 309 309 309 309 309 309 309 309 309 310 310 310 311 311 311 312 312 312 312 312 313 313 312 312 313 313 312 313 313 313 312 312 312 312 312 312 312 312 312 312 312 312 312 311 311 311 311 311 310 309 309 309 309 309 310 310 308 307 307 306 305 305 305 305 304 304 305 307 307 306 306 306 307 309 313 314 314 315 317 317 317 315 314
309 309 309 308 308 309 308 308 309 309 309 309 310 311 311 310 311 311 311 311 312 312 311 311 312 312 312 312 312 312 313 312 312 312 312 312 311 311 312 312 312 312 312 312 311 311 311 310 311 311 310 309 309 309 308 308 308 309 309 309 308 308 307 306 306 306 306 306 306 308 309 308 308 309 309 309 310 313 315 315 316 316 317 317 314 310
309 308 308 308 308 308 308 308 309 308 308 308 310 310 311 310 311 310 310 311 311 311 311 311 311 311 312 312 312 312 312 313 313 313 313 313 313 313 313 312 312 312 312 311 310 310 310 310 310 310 309 309 309 308 307 307 308 309 309 309 309 309 308 308 308 309 309 308 309 309 309 309 309 309 309 309 309 310 312 315 316 316 315 316 315 312
308 307 307 307 307 307 307 308 308 307 308 309 310 310 310 310 309 309 309 310 310 310 311 310 310 310 311 312 312 312 312 313 313 312 312 312 313 313 313 311 311 312 311 310 310 310 310 310 310 309 309 309 308 307 307 307 308 308 309 309 309 309 308 308 308 308 308 308 308 309 309 310 309 308 308 308 308 309 311 313 315 315 315 315 315 315
307 306 306 306 306 306 306 306 307 308 308 308 309 309 309 309 308 307 308 308 309 309 310 309 309 310 311 311 310 311 311 311 311 310 310 310 311 312 312 311 311 311 310 310 310 310 310 309 309 308 309 308 308 307 307 308 308 308 308 308 308 308 308 308 307 307 307 307 307 308 310 309 308 308 308 308 309 309 310 312 314 315 315 315 315 315
307 306 306 306 306 306 306 306 307 307 308 308 308 309 309 308 308 308 307 308 308 309 309 309 308 309 310 309 309 309 309 309 310 309 308 308 309 309 310 311 311 311 310 310 310 309 309 308 308 308 308 308 307 307 307 307 308 308 308 308 308 308 308 307 307 307 306 306 307 308 309 308 308 308 308 308 308 309 310 312 314 315 315 315 315 314
306 305 305 306 306 306 306 306 306 307 307 308 308 308 308 308 309 308 307 307 308 307 308 307 307 308 309 309 308 308 308 308 308 308 307 307 307 307 307 308 309 309 309 308 308 308 307 307 307 307 307 307 306 306 306 307 308 308 307 308 308 308 307 307 307 307 306 306 306 307 308 308 308 308 308 308 308 309 310 311 313 314 314 314 314 314
305 305 305 305 305 305 305 305 306 306 307 308 308 307 307 307 307 307 306 305 306 307 306 306 307 307 307 307 307 307 307 307 307 307 307 307 306 306 305 306 306 306 307 306 306 306 306 306 306 305 305 305 306 306 306 307 307 307 307 307 307 307 307 306 306 306 306 305 305 306 307 308 308 308 309 309 308 308 309 310 312 313 313 313 313 313
305 305 304 304 304 305 305 305 305 305 306 307 307 306 306 306 305 306 305 304 305 306 305 305 306 306 306 306 306 306 306 306 306 306 306 306 306 305 305 305 305 305 305 305 305 305 305 305 305 305 305 305 306 306 306 306 306 306 306 306 306 306 307 306 306 306 305 304 305 305 306 307 307 308 309 309 309 308 308 309 311 312 313 312 312 312
304 304 304 304 304 304 304 304 304 305 306 306 305 305 305 305 304 304 304 303 304 305 304 304 304 304 304 305 305 305 305 305 305 305 305 305 305 305 305 305 305 304 304 304 304 304 304 304 305 305 305 305 305 305 305 305 305 306 305 306 306 306 306 306 306 305 305 304 304 304 305 306 306 308 309 309 308 307 307 308 310 311 312 312 312 312
303 303 303 303 303 303 303 303 303 304 304 304 304 304 304 304 303 303 303 303 303 303 303 303 303 303 303 304 304 304 304 304 304 304 304 304 304 304 304 304 304 304 304 303 303 303 303 304 304 304 304 305 305 305 305 305 305 305 305 305 306 306 305 305 305 305 305 304 304 304 305 305 306 306 306 307 307 306 306 308 310 311 311 312 312 312
302 302 302 302 303 302 302 302 303 303 302 302 302 303 303 303 302 302 302 302 302 302 302 302 302 302 302 303 303 303 303 303 303 303 303 303 303 303 303 303 303 303 303 303 303 303 303 303 303 303 303 303 303 304 304 305 305 305 305 305 305 305 305 305 305 305 304 304 304 304 305 305 306 305 306 306 307 307 307 308 310 310 311 311 311 311
302 301 301 301 302 301 301 302 302 302 301 302 301 301 302 302 301 301 301 301 301 301 301 301 301 301 302 302 302 302 302 302 302 302 302 302 302 302 303 303 303 303 303 303 303 302 302 302 302 302 302 302 303 303 304 304 304 304 305 305 305 305 305 305 304 304 304 304 304 304 305 306 306 306 306 307 308 309 309 309 309 310 310 310 310 310
300 301 300 300 300 300 301 301 302 301 301 301 301 300 301 300 300 300 300 300 300 300 300 300 300 300 300 300 301 301 301 301 301 301 302 302 302 302 302 302 302 302 302 302 302 302 302 302 302 302 302 302 302 303 303 304 304 304 305 305 305 305 305 305 305 305 305 305 305 304 305 306 306 307 307 308 309 309 309 309 309 309 309 309 309 309
300 300 300 299 299 300 300 300 300 300 300 300 300 299 299 299 299 299 299 299 299 299 299 299 299 299 299 299 300 300 300 300 300 300 300 300 301 301 301 301 301 301 301 301 301 302 301 301 302 302 302 302 302 303 303 303 304 304 304 304 304 304 304 304 304 305 305 305 305 305 305 306 306 307 307 307 308 308 308 308 309 308 308 309 309 308
300 300 299 298 298 298 299 299 299 299 299 299 299 298 298 298 298 298 298 298 298 298 298 298 298 298 298 298 299 299 299 299 299 299 299 299 299 300 300 300 300 300 301 301 301 301 301 301 301 301 302 302 302 302 302 302 302 303 303 303 303 303 303 303 303 303 303 304 304 305 305 306 306 307 307 307 307 306 307 308 308 307 307 308 308 308
299 298 297 297 298 298 298 298 299 299 298 298 298 298 298 298 298 298 298 298 298 298 298 298 298 298 298 298 298 298 298 298 298 299 299 299 299 299 299 300 300 300 300 300 300 300 300 301 301 301 302 302 302 302 302 302 302 302 302 302 302 302 302 302 302 302 303 303 303 304 304 305 306 306 306 306 306 306 306 306 306 306 306 307 307 307
298 297 297 297 297 297 297 298 298 298 298 298 298 298 298 298 298 298 298 298 297 297 297 297 297 297 298 298 298 298 298 298 298 298 298 298 299 299 299 299 299 299 300 300 300 300 300 301 301 301 302 302 302 302 302 302 302 302 301 301 302 302 302 302 302 302 303 303 303 303 304 304 305 306 306 306 305 305 306 306 306 306 306 305 305 305
298 297 297 297 296 296 297 298 298 297 297 297 298 298 298 298 298 298 298 298 298 298 298 298 298 298 298 299 299 299 299 298 298 298 298 298 298 299 299 299 299 299 300 300 300 300 301 301 301 302 302 302 302 301 301 301 301 301 301 301 301 302 302 302 303 303 303 303 303 304 304 304 305 305 306 306 305 305 305 305 305 304 304 304 303 302
297 297 297 296 296 297 297 297 298 297 297 298 298 298 299 299 298 299 299 298 299 299 300 299 299 299 300 300 299 299 299 299 299 299 299 299 299 299 299 300 300 300 300 300 300 301 301 302 302 302 301 302 301 301 301 301 301 301 302 302 302 302 302 302 302 302 303 303 303 304 304 304 305 305 306 305 305 305 304 304 302 302 303 302 301 299
Wind_Speed
5 5 8 6 1 2 2 3 7 9 10 7 4 6 7 6 8 10 8 7 4 6 9 12 10 11 11 6 6 7 8 10 11 11 11 11 13 13 14 14 15 20 23 21 20 21 22 22 22 23 23 23 23 23 21 18 17 16 14 12 10 8 7 7 7 6 5 5 4 4 3 3 3 2 2 3 3 2 1 1 1 0 2 4 4 3
3 6 9 2 6 7 4 4 5 7 6 7 7 6 7 6 7 7 6 8 5 6 9 11 9 9 10 8 7 7 8 11 12 12 12 13 14 13 14 14 14 15 20 20 22 24 23 23 23 22 22 24 26 27 24 20 18 16 15 13 11 9 8 9 8 7 6 5 4 4 4 4 4 3 3 4 4 2 0 1 1 3 3 4 5 4
6 9 7 3 5 3 1 3 5 7 8 8 7 7 7 7 6 3 6 6 5 5 9 10 9 9 11 11 9 8 9 12 14 13 13 15 14 13 13 13 14 13 15 19 23 24 23 24 25 23 24 26 28 28 26 22 20 19 17 15 13 11 10 10 9 8 7 7 6 6 6 5 5 4 5 6 5 5 3 2 1 2 1 1 2 3
5 4 4 7 3 2 4 5 7 7 8 8 8 8 7 8 9 3 5 6 4 4 9 10 7 6 9 10 9 10 12 11 10 10 12 15 14 13 13 13 14 15 15 17 20 19 22 25 26 26 28 29 29 29 27 24 23 22 19 17 15 13 12 11 10 9 8 8 8 8 8 7 6 5 6 7 7 6 5 4 4 3 3 4 4 4
6 4 8 6 3 5 7 7 8 8 7 9 10 9 8 9 9 4 3 5 4 6 8 10 7 5 9 12 11 11 12 9 9 10 12 14 14 15 14 13 12 14 16 16 17 18 20 23 25 27 31 31 30 30 26 24 25 24 21 19 17 15 14 12 10 10 9 8 7 7 9 9 8 7 7 7 7 6 6 6 6 6 6 6 6 6
5 6 6 3 4 8 9 7 9 8 7 8 10 10 11 10 7 6 5 5 6 7 8 8 7 6 10 15 13 9 9 9 11 13 14 15 16 15 14 13 12 12 14 15 18 19 18 19 22 26 30 32 31 30 27 24 25 24 23 20 18 17 16 13 11 11 10 8 7 8 10 10 9 9 8 8 7 7 6 6 6 7 7 7 8 7
2 5 3 4 6 9 9 9 9 8 8 7 6 9 11 11 7 8 8 7 7 5 5 7 8 7 7 9 8 8 9 11 11 11 13 15 16 15 15 15 14 13 12 13 14 16 18 20 22 23 27 31 32 31 29 26 25 24 23 22 21 19 17 13 12 11 11 11 9 9 10 10 10 9 8 9 8 8 7 7 7 7 8 8 8 8
4 4 3 5 8 9 8 9 8 8 8 5 1 6 10 11 10 9 10 9 8 5 5 8 9 8 6 7 6 9 10 12 11 10 11 11 12 14 14 13 13 14 13 13 13 15 19 21 22 22 24 27 29 30 30 29 27 25 23 24 23 20 18 14 12 12 12 12 11 11 11 10 9 9 9 10 9 9 8 8 8 8 8 8 8 8
4 5 5 8 9 7 8 9 7 9 8 2 1 6 8 10 10 9 9 8 8 8 6 9 9 8 8 7 5 9 11 12 11 11 10 8 9 10 11 9 8 9 10 11 11 13 16 19 21 22 21 23 25 28 32 32 30 27 25 25 24 21 19 15 13 12 13 14 13 12 12 11 10 10 10 10 10 9 9 9 9 8 7 7 8 8
4 5 6 9 8 7 10 9 6 8 7 1 3 8 8 9 9 8 8 8 7 7 8 9 8 7 7 6 5 8 9 10 10 9 7 6 5 5 6 6 6 6 7 8 9 10 11 14 18 20 21 21 23 27 30 31 31 30 28 27 25 22 20 17 14 14 14 15 14 13 13 12 11 11 11 11 10 9 8 9 9 8 7 7 7 8
5 5 4 7 8 8 10 7 0 3 6 3 5 9 9 8 7 6 7 7 7 7 10 12 11 9 7 6 6 5 5 4 4 5 5 4 4 2 2 4 4 4 4 5 7 7 7 9 14 17 20 21 23 25 26 28 30 31 31 29 26 24 22 19 16 16 15 16 16 14 14 14 13 13 13 12 11 10 9 8 8 8 8 7 6 6
6 8 6 7 10 10 9 7 4 7 8 7 8 8 7 6 5 5 7 7 7 8 9 10 10 9 8 6 3 2 6 5 2 6 7 5 3 2 1 0 1 3 5 5 6 6 7 9 12 16 19 22 24 25 26 27 29 32 33 31 28 26 24 21 18 17 16 17 17 15 15 15 14 14 14 13 12 11 10 9 8 8 8 7 6 6
7 9 10 9 9 9 9 8 7 8 8 8 8 7 6 6 5 6 7 6 8 8 5 4 6 7 8 7 2 5 7 7 4 4 5 4 3 3 1 2 4 5 6 6 7 7 7 9 10 14 19 22 24 26 27 27 29 32 33 32 30 28 26 23 20 19 18 18 18 16 16 16 15 14 14 13 13 12 11 10 9 8 8 8 7 7
6 9 11 8 7 8 9 8 6 6 7 8 8 6 6 5 6 8 7 6 8 6 3 2 4 6 7 6 5 8 7 7 6 6 6 5 4 3 1 3 4 6 7 7 8 8 7 6 6 11 17 20 22 24 25 26 27 30 31 32 31 29 27 24 22 20 19 19 18 17 16 16 15 15 14 13 13 13 12 11 11 9 8 8 8 8
6 5 7 4 3 6 9 10 7 5 6 8 8 8 7 6 7 7 5 6 6 4 4 4 2 5 6 2 5 8 8 8 8 9 9 7 6 4 2 4 4 6 8 8 8 9 7 4 2 7 13 17 18 20 21 22 24 26 28 30 31 29 28 25 23 22 21 20 19 18 17 16 15 15 14 13 13 13 13 12 13 11 10 9 9 9
8 4 6 4 2 4 8 9 8 7 5 6 7 8 7 6 6 7 7 7 5 4 5 5 4 4 1 4 6 7 8 9 9 11 10 9 7 5 4 4 4 7 9 9 9 9 8 5 1 5 10 14 15 17 18 18 19 21 24 27 29 27 26 26 24 23 22 22 20 19 18 17 16 15 15 14 13 13 13 13 14 13 12 11 10 11
7 5 5 6 6 8 7 5 5 7 5 4 6 7 7 7 6 7 8 5 2 6 7 6 7 5 3 6 8 9 9 10 10 10 11 10 9 7 6 5 6 8 10 10 9 9 9 8 3 4 8 10 11 13 14 15 15 17 18 22 24 23 22 23 24 23 23 22 21 21 19 18 17 16 15 15 14 14 14 14 14 13 13 13 12 13
4 6 2 5 9 7 4 6 8 9 8 6 5 4 5 7 6 5 6 5 5 8 7 7 10 9 6 5 8 11 11 10 9 9 10 10 9 8 8 7 8 9 10 10 10 9 9 9 7 5 6 7 8 10 11 11 11 12 13 17 20 20 19 19 20 21 22 22 22 22 21 20 18 17 16 15 15 14 15 15 15 14 14 14 13 15
2 6 7 9 9 5 5 8 9 10 12 11 8 6 5 6 6 5 6 6 7 8 6 8 11 9 8 4 8 12 12 10 10 10 10 10 9 9 9 9 10 10 10 11 11 10 9 9 9 7 6 7 8 9 9 9 8 7 10 13 15 15 15 15 16 16 17 20 21 22 21 20 19 19 17 16 15 14 15 15 15 14 14 14 14 16
1 5 6 6 6 4 4 7 7 8 11 11 10 9 7 6 6 6 5 6 7 8 7 9 9 7 6 3 6 11 11 10 11 10 10 9 9 9 9 10 10 10 11 11 12 12 11 10 9 8 7 8 10 11 11 10 8 7 9 10 11 13 13 11 12 13 14 16 18 19 18 19 19 18 16 15 14 14 14 15 14 14 14 15 15 16
2 5 6 6 5 5 6 6 6 7 6 7 8 8 7 7 6 6 6 6 7 8 7 7 8 6 2 1 4 8 9 10 11 10 8 8 10 9 9 11 11 11 12 12 13 13 13 12 10 9 8 8 10 12 14 13 12 9 8 8 9 10 11 10 10 10 11 12 14 15 15 17 18 15 14 17 17 16 15 15 16 15 14 15 15 16
4 5 6 7 6 7 8 5 4 8 7 6 6 6 6 7 7 7 8 7 7 8 8 7 8 6 2 2 3 5 7 9 10 9 8 8 10 11 11 11 11 12 12 12 13 13 13 13 12 12 11 11 12 11 12 13 13 12 10 8 8 7 7 8 9 8 9 10 12 13 13 16 19 17 17 21 22 20 17 16 17 16 15 16 16 17
2 4 6 8 8 10 12 8 4 6 9 10 10 8 8 7 7 8 8 7 6 8 9 8 9 4 4 3 3 4 5 11 12 9 8 9 10 11 11 11 11 12 12 12 12 12 12 13 13 14 14 14 15 14 13 12 12 12 11 10 11 11 8 6 7 8 8 8 9 11 12 14 17 18 20 23 24 24 22 19 18 17 17 18 18 18
2 4 7 8 8 11 14 13 10 8 8 10 11 10 10 10 10 9 9 8 7 9 9 7 8 4 3 3 2 3 2 8 10 9 9 9 9 10 11 12 11 11 11 11 11 11 11 11 11 12 13 13 14 15 14 13 12 12 12 11 10 12 11 8 7 6 5 6 7 8 10 11 13 15 17 20 23 24 25 24 23 23 20 20 20 20
1 5 6 7 8 7 9 11 11 9 7 7 8 10 13 14 13 11 10 9 8 11 12 9 9 5 3 3 2 2 4 6 8 10 11 11 11 11 11 11 11 10 11 10 10 11 10 10 10 11 11 11 12 12 12 12 12 11 11 11 10 10 10 7 7 6 4 4 6 6 7 10 11 13 14 15 17 20 22 23 25 26 25 24 24 23
4 6 6 7 7 6 7 7 5 4 5 6 7 11 14 14 12 9 8 9 9 11 12 10 10 6 1 2 2 4 6 7 9 11 11 11 11 11 10 10 10 9 9 9 9 10 9 10 10 10 11 10 11 11 11 11 11 10 9 9 9 10 10 8 7 8 8 6 6 5 3 2 5 9 12 13 14 16 18 19 20 21 22 23 24 24
5 6 8 10 10 9 10 11 9 8 8 8 9 12 13 11 11 9 7 9 9 10 11 11 11 11 8 6 6 5 6 7 7 9 10 10 10 10 10 10 9 7 7 7 7 8 8 9 10 10 11 10 10 10 10 11 11 11 11 10 9 8 8 8 7 6 7 8 7 6 5 3 1 3 4 7 10 12 14 15 17 19 19 19 19 20
5 7 10 13 14 14 15 16 16 15 14 14 13 14 15 14 15 12 10 11 12 10 11 12 11 12 12 10 8 6 6 8 8 8 9 10 10 10 9 9 8 7 6 6 6 6 8 9 9 9 9 9 9 9 10 10 10 11 11 10 10 9 8 8 9 8 5 2 2 3 3 3 6 6 5 5 5 6 7 10 14 17 19 19 19 20
6 8 10 13 15 16 17 17 17 17 17 16 17 18 18 18 19 17 15 16 15 11 12 14 15 14 13 11 11 9 8 9 10 11 12 12 11 12 11 10 9 8 8 7 6 6 6 7 8 8 8 8 8 8 8 9 9 10 10 10 9 8 8 8 8 9 8 4 3 2 1 4 8 11 12 12 11 11 12 12 13 14 15 17 19 20
4 7 9 12 14 15 17 17 17 17 17 17 19 20 19 19 21 20 19 20 19 17 18 18 18 16 14 13 13 12 12 11 10 10 12 13 13 14 13 11 10 9 9 9 7 7 7 7 7 7 7 7 6 6 6 6 6 7 7 8 8 6 5 6 6 7 8 6 5 5 4 3 4 6 8 9 11 13 15 14 13 12 12 14 16 18
2 5 8 9 11 13 15 17 18 18 18 19 20 21 20 20 20 19 19 19 18 19 19 17 15 13 12 13 14 16 18 17 15 15 15 14 16 16 15 14 13 12 11 10 8 8 7 7 7 7 7 6 5 5 5 4 3 3 2 2 2 2 5 5 4 3 3 4 5 5 5 6 7 8 8 8 8 9 10 11 11 11 12 13 14 16
4 6 9 9 10 12 12 15 18 18 19 21 21 21 21 20 18 17 17 16 15 16 17 15 13 10 10 12 13 16 18 18 19 20 20 19 19 19 17 16 15 13 11 11 10 9 7 7 7 6 6 5 4 4 4 3 3 3 2 2 2 4 8 10 11 10 8 8 7 5 5 6 8 9 9 9 8 8 9 10 10 11 12 12 13 14
6 7 8 8 9 11 13 15 16 15 15 15 13 14 17 18 18 19 18 18 17 15 14 13 11 11 11 11 11 12 14 15 17 18 17 18 19 17 16 15 15 13 11 11 11 10 8 7 6 5 4 3 3 2 2 2 2 2 2 2 2 1 2 3 4 5 6 6 5 4 4 5 6 6 7 8 8 8 10 11 11 11 12 12 14 15
9 8 8 8 8 11 14 15 13 12 13 10 4 5 9 13 15 16 15 16 15 12 10 11 12 13 12 10 10 12 12 12 10 8 8 9 10 11 13 14 14 13 11 10 10 9 7 6 5 4 3 2 2 1 0 0 0 1 0 1 1 1 1 1 1 2 3 4 4 4 5 5 5 6 8 9 10 10 11 11 12 12 12 11 13 15
9 9 8 8 8 10 11 11 12 12 11 7 3 3 6 7 8 10 12 13 11 10 11 13 13 12 10 9 10 11 11 10 7 5 5 5 5 7 11 14 13 10 10 11 10 7 5 4 3 2 2 2 1 2 2 1 1 1 1 1 1 1 1 1 2 2 3 4 4 5 5 6 7 9 11 12 12 12 11 12 13 13 12 11 12 12
9 8 8 8 9 9 9 9 11 10 9 7 5 4 5 7 8 9 11 12 9 7 9 11 11 9 8 8 9 9 11 11 9 4 3 2 3 5 7 10 9 10 11 10 8 5 2 2 2 2 2 2 2 2 3 3 3 3 3 3 3 3 3 3 4 4 4 5 6 5 6 7 9 10 12 12 12 12 12 12 13 13 12 12 12 13
10 9 8 8 8 8 9 10 10 10 11 9 4 1 3 5 6 6 8 10 8 6 7 9 9 9 8 9 10 10 10 12 10 6 0 3 3 4 5 4 1 7 10 9 7 5 5 6 5 4 3 3 3 4 4 5 5 5 5 5 5 5 5 5 5 5 6 6 7 7 8 9 10 11 12 12 12 12 12 11 12 12 12 12 12 13
9 9 8 8 7 7 9 9 9 10 9 3 2 5 5 5 6 5 6 7 4 5 7 8 7 9 10 10 11 11 9 9 8 4 2 1 1 3 5 4 2 1 4 6 6 7 8 8 8 6 4 4 5 6 6 6 6 7 8 8 8 7 7 7 7 7 7 8 8 8 9 10 10 11 12 12 12 12 12 11 12 12 12 12 13 13
10 9 8 8 8 7 9 8 8 9 4 3 5 4 6 7 9 8 7 5 2 7 10 9 7 9 11 11 11 11 8 7 5 2 3 3 4 3 4 5 4 4 5 6 8 9 9 9 9 9 8 7 7 7 7 8 9 9 10 10 10 10 10 9 9 9 9 10 10 10 10 10 11 12 12 11 12 12 12 11 12 12 13 13 13 12
9 7 7 8 9 9 9 8 8 6 0 5 4 4 5 7 7 7 6 2 4 7 9 9 9 10 11 12 11 9 8 7 4 4 5 6 6 7 8 8 8 8 9 10 11 12 12 12 12 12 10 9 9 9 9 10 11 11 12 12 12 12 12 11 11 11 12 12 12 12 12 12 12 12 12 12 12 13 13 12 12 13 13 13 13 12
6 5 6 7 8 9 9 9 8 4 2 5 5 5 6 6 5 6 5 4 7 9 9 10 12 13 13 14 12 10 10 11 9 8 9 10 10 11 11 11 11 12 13 13 13 13 14 15 15 14 12 11 11 12 11 12 12 13 14 14 14 13 12 12 13 14 14 15 14 15 15 14 13 13 14 14 15 15 14 13 13 13 14 13 13 13
5 5 5 7 8 8 8 8 9 5 2 7 9 8 7 6 4 4 7 9 11 12 12 13 14 14 14 15 14 13 14 15 14 14 14 14 14 14 14 14 15 16 16 16 16 16 17 17 16 16 15 14 14 13 13 14 15 15 15 15 15 15 14 14 15 15 16 16 16 16 16 15 15 16 18 19 19 18 17 15 13 14 14 14 15 15
4 5 6 7 7 8 8 9 9 4 2 8 10 7 4 4 6 9 13 14 14 14 15 16 16 15 15 15 16 16 17 17 17 18 18 18 19 18 18 18 19 19 19 19 19 19 20 20 19 18 18 17 17 17 16 16 17 17 17 17 16 16 16 16 17 17 18 18 18 17 17 17 18 18 20 21 20 19 18 15 13 15 15 15 17 17
4 5 7 5 3 5 7 7 4 2 4 9 10 7 7 10 12 15 16 17 18 18 18 18 18 17 17 17 18 19 19 20 21 21 21 22 22 22 23 23 22 22 23 23 23 22 22 22 22 21 20 20 19 18 17 17 18 19 19 18 17 17 18 18 18 19 20 20 20 19 18 18 18 18 18 18 16 16 15 14 16 18 19 19 19 17
2 3 6 5 3 5 7 8 9 12 15 16 13 12 14 16 16 17 18 19 20 20 20 20 20 19 19 20 21 22 22 23 23 23 23 24 24 25 26 26 25 25 25 26 26 26 25 25 25 24 23 22 20 20 19 19 19 20 20 20 19 18 19 19 19 19 20 20 20 20 19 19 19 18 18 16 15 15 15 16 20 24 24 22 21 18
4 6 7 6 6 9 11 13 16 17 17 16 16 16 18 19 19 19 20 21 21 20 20 20 22 22 22 23 24 25 25 26 26 26 27 27 27 27 28 28 28 28 28 28 28 27 27 28 27 26 25 24 23 22 22 21 21 22 22 21 20 20 21 21 21 21 21 21 21 20 20 20 19 19 18 17 17 16 15 16 19 22 24 22 19 18
3 5 5 8 8 9 9 10 13 15 16 17 19 19 19 20 20 19 19 20 20 20 20 21 23 25 25 25 26 28 28 28 29 30 30 29 30 30 30 31 31 30 30 30 29 28 29 29 28 28 27 26 25 25 25 25 26 26 26 25 25 24 25 26 25 25 25 24 23 22 21 21 21 20 18 18 19 18 15 13 15 20 23 21 20 20
2 5 4 8 9 9 10 13 16 19 20 19 18 18 18 19 19 19 20 21 21 22 23 25 26 27 28 28 28 30 31 31 31 32 32 31 31 31 30 31 31 31 30 30 29 29 30 29 29 29 28 27 27 27 26 27 28 27 27 27 26 26 26 27 27 26 27 26 25 24 22 21 21 19 18 20 20 17 14 13 18 23 23 20 21 23
7 5 6 8 9 9 11 13 15 16 15 16 17 18 19 20 21 23 23 23 24 25 26 27 28 28 29 30 29 30 32 33 33 33 34 33 33 32 31 31 31 31 31 31 30 30 30 30 30 29 29 29 27 26 25 26 26 27 27 27 26 26 26 27 27 27 27 27 27 26 25 23 21 19 18 18 17 16 17 18 19 19 17 18 20 23
8 7 7 7 8 8 9 12 14 12 11 15 19 21 21 22 24 25 26 26 26 25 24 25 27 26 26 26 26 27 29 31 31 32 33 33 33 32 32 31 31 31 31 30 30 29 29 30 30 29 29 29 27 26 27 27 27 27 27 26 26 26 26 27 27 27 27 28 27 27 25 23 20 19 19 18 18 18 20 18 15 15 17 21 23 24
4 6 7 7 8 9 12 17 18 16 15 19 22 23 23 23 24 24 25 25 25 24 23 24 25 25 24 24 25 25 27 28 28 28 30 31 31 30 30 30 30 30 29 28 28 28 28 28 28 28 28 29 28 27 28 28 28 28 27 26 26 26 27 27 27 27 27 27 26 26 25 22 21 21 21 20 18 18 18 17 19 19 19 21 25 26
Wind_Direction
228 234 228 228 215 79 64 358 348 340 334 323 280 251 240 211 217 214 140 123 238 248 238 227 213 241 246 223 225 206 204 235 226 208 208 213 217 214 215 218 205 186 174 180 191 187 189 190 189 184 176 177 177 174 173 167 166 165 163 176 185 191 190 167 157 155 156 155 145 141 134 130 128 119 114 98 94 114 144 140 121 294 286 289 290 290
232 249 239 232 48 46 21 353 329 310 299 280 272 261 247 234 227 220 150 136 196 245 250 237 221 244 254 230 229 223 211 232 230 211 208 210 213 216 212 216 223 190 166 182 194 188 190 192 191 185 177 180 181 181 180 174 175 173 168 177 193 199 190 171 163 166 160 149 148 140 137 138 124 113 109 105 105 111 82 305 278 292 300 303 299 282
218 242 232 119 58 40 329 295 274 270 265 255 252 252 245 233 232 167 124 156 187 230 255 247 224 232 248 236 219 219 222 230 228 215 207 206 207 213 211 210 221 212 185 182 180 182 192 196 194 186 182 186 188 189 188 186 189 185 177 180 193 199 193 183 168 163 162 156 158 144 135 132 127 142 138 121 109 97 72 43 23 322 303 34 19 353
232 228 153 114 103 227 221 235 243 244 244 244 239 245 246 230 233 196 145 195 220 246 272 279 257 230 248 242 210 208 225 225 217 215 212 209 206 207 214 212 211 221 211 176 163 182 198 197 195 190 190 193 194 197 192 192 199 194 184 183 191 195 197 195 170 160 175 177 177 162 145 139 141 155 145 123 109 99 82 65 59 52 69 94 94 82
269 83 106 120 159 225 230 216 227 243 233 230 237 248 255 244 252 266 166 183 230 241 260 279 271 235 237 235 215 204 215 218 206 213 214 211 211 208 213 219 212 218 219 192 177 194 201 196 194 195 198 197 198 202 196 191 198 196 188 184 190 195 198 199 176 169 182 180 179 166 147 142 139 132 126 120 113 106 92 76 66 63 74 83 90 92
259 96 122 185 208 224 239 225 218 240 248 229 222 238 266 271 267 255 199 180 233 233 213 233 251 244 235 231 219 193 198 217 212 209 206 201 203 205 210 216 217 222 226 217 202 200 208 209 202 199 202 202 202 204 200 192 193 194 189 185 188 194 198 195 180 177 177 168 168 156 143 139 137 132 132 133 123 115 108 98 87 79 83 89 91 90
144 115 174 210 227 229 234 241 221 219 255 257 204 208 249 268 252 240 232 217 247 255 173 203 253 264 251 241 215 179 194 216 208 205 208 200 195 200 208 207 209 216 218 226 221 208 214 220 212 203 201 205 207 207 205 199 192 190 187 187 188 191 196 191 180 178 170 167 165 153 151 148 142 141 138 134 128 123 119 111 100 87 83 84 89 90
142 152 209 203 227 232 228 243 219 203 245 283 153 198 226 246 236 231 241 235 251 266 177 197 246 263 262 259 216 179 199 213 199 201 212 208 203 206 213 210 208 212 209 215 222 215 216 220 218 211 203 204 205 204 207 206 198 189 184 188 188 188 195 189 180 178 167 169 169 158 161 158 149 152 146 139 134 130 124 115 104 96 92 90 90 94
181 187 204 212 224 231 240 243 198 199 238 259 285 245 235 243 234 224 240 244 250 261 237 219 235 253 254 249 206 175 203 221 209 207 207 206 222 222 220 225 226 225 223 224 226 222 220 220 222 218 208 203 199 201 210 212 207 194 183 188 190 190 195 187 182 181 168 170 175 167 167 164 157 158 151 145 141 137 133 126 121 118 112 105 100 99
193 202 213 221 226 229 246 247 173 190 234 239 271 259 249 248 239 229 240 248 249 253 256 246 231 244 257 246 214 190 207 237 231 214 199 188 218 232 220 237 252 243 242 246 248 244 231 222 222 220 212 203 196 200 208 210 207 197 188 192 194 193 194 188 186 186 172 171 178 174 172 171 165 160 155 154 151 147 142 135 132 129 120 112 108 104
166 186 232 238 244 251 262 283 357 223 259 276 256 247 240 242 242 241 244 250 256 243 241 243 230 235 252 243 240 215 188 242 236 168 151 168 189 181 183 222 245 259 278 281 275 272 261 239 227 220 213 204 195 196 197 197 197 197 196 196 194 194 195 193 191 189 178 174 179 179 177 176 172 166 161 160 160 155 151 146 139 136 133 129 124 116
191 188 210 219 232 253 267 272 246 237 253 256 246 241 237 236 237 245 242 237 247 249 246 245 231 227 243 249 263 105 141 173 176 139 148 176 175 113 85 144 11 357 343 332 322 310 290 268 244 223 212 204 195 190 190 190 191 198 203 199 194 194 197 197 192 191 188 180 178 182 182 180 178 174 169 166 166 163 161 157 150 149 149 145 141 133
227 217 210 196 203 233 251 241 214 214 233 240 236 239 239 233 227 234 235 227 237 254 267 265 241 226 245 256 202 121 141 157 156 147 154 162 129 96 63 39 34 11 359 353 344 334 313 292 257 224 212 205 196 188 187 187 188 199 205 200 195 197 200 201 195 194 195 188 181 182 184 183 182 181 177 173 171 168 169 168 163 163 161 160 159 154
228 219 204 191 183 209 236 240 216 198 216 234 232 235 240 235 237 239 237 235 239 246 250 278 269 244 251 254 171 145 138 135 141 141 133 130 112 97 47 41 40 20 15 12 4 356 338 311 260 218 209 204 196 190 186 184 188 198 202 198 198 201 202 202 199 198 199 192 185 184 187 186 185 187 185 182 181 177 176 176 174 172 170 175 174 171
257 224 193 201 158 180 225 246 253 236 222 239 244 242 244 243 248 252 256 260 262 249 206 180 203 252 255 207 137 144 148 151 154 145 138 140 130 113 68 46 41 33 31 27 23 16 5 347 252 206 202 198 194 192 187 184 190 196 197 198 198 200 203 204 201 201 201 196 189 186 189 189 189 191 191 191 191 187 184 182 181 179 177 184 183 180
273 256 164 175 178 197 232 247 263 268 243 237 245 243 243 245 252 263 272 279 300 294 242 202 212 254 221 141 152 158 167 168 158 152 154 150 137 120 93 72 52 46 43 39 38 32 29 35 91 190 196 196 193 193 190 187 190 192 194 198 196 196 200 203 204 206 206 201 193 189 190 192 193 195 196 197 198 194 192 187 186 184 180 185 185 183
263 260 139 159 211 224 243 258 257 261 262 246 238 243 254 259 260 268 265 252 244 266 256 236 243 243 178 174 176 175 181 171 163 168 166 152 139 125 106 90 69 60 56 50 48 45 45 50 72 163 184 189 187 189 188 186 188 187 191 194 192 191 193 198 204 208 209 206 199 194 193 194 196 199 199 201 202 199 197 193 192 191 186 185 183 183
267 276 243 223 230 207 222 273 261 250 260 269 256 254 269 264 258 263 265 250 239 257 253 240 248 245 235 213 174 185 199 184 184 186 165 157 151 130 111 101 88 74 68 64 60 56 58 59 67 115 158 167 169 173 173 172 175 182 190 192 192 192 190 193 198 203 208 209 205 201 199 198 200 203 203 204 206 203 201 199 197 196 193 191 187 187
273 275 261 247 243 200 192 248 256 244 240 250 271 286 275 261 252 243 253 262 259 265 265 254 253 252 253 226 170 194 209 197 199 189 166 170 165 137 120 110 101 90 82 76 71 67 69 71 73 89 115 134 142 143 148 152 153 166 181 183 186 190 189 192 193 193 201 204 204 205 206 205 205 206 207 208 209 208 208 207 205 203 200 196 192 192
257 268 268 246 235 226 220 234 248 244 227 231 255 268 262 263 270 263 256 261 261 262 266 267 265 259 258 237 180 196 207 201 199 188 175 171 155 139 128 115 106 100 92 86 82 78 78 82 82 83 92 108 118 118 117 118 124 152 174 174 175 178 175 177 180 181 188 192 197 205 208 209 211 211 214 216 216 217 217 215 211 211 209 206 201 199
252 258 273 263 237 231 242 242 254 264 245 229 240 245 244 247 260 270 263 260 267 270 270 272 270 267 266 262 216 202 200 203 198 188 181 167 151 141 129 120 113 107 102 96 93 89 87 89 91 90 90 92 102 117 123 120 120 132 155 173 179 176 173 175 175 178 185 187 194 202 207 213 215 215 218 220 220 221 223 221 216 219 221 217 211 206
260 256 260 265 258 243 250 261 284 295 294 276 263 261 259 253 253 259 257 254 261 267 271 275 276 286 28 48 258 218 188 192 196 190 179 165 150 136 127 126 121 114 110 105 101 98 94 93 92 92 92 87 87 100 121 132 135 131 131 147 162 167 176 187 189 190 192 191 196 204 213 222 224 224 228 227 222 219 223 226 224 227 232 231 227 222
354 286 266 263 263 265 273 279 270 277 284 280 274 274 276 272 266 265 266 271 274 269 269 271 272 287 61 66 297 275 198 184 192 195 181 163 148 138 134 132 126 121 117 112 106 102 99 95 91 88 87 87 86 87 94 110 131 139 136 140 157 171 175 182 194 199 200 198 202 210 218 227 231 233 239 239 234 229 231 235 234 231 233 235 235 232
99 261 260 262 264 263 267 264 247 239 257 268 263 262 265 264 263 269 277 287 286 274 271 269 266 260 116 124 281 303 212 182 187 196 190 173 158 153 148 139 134 130 125 120 113 107 103 99 93 87 83 83 84 85 86 88 100 117 126 130 153 178 186 194 204 200 199 205 205 212 222 229 234 233 233 237 240 240 242 245 246 241 238 237 235 234
175 249 249 259 266 255 247 247 243 233 237 254 259 259 258 259 266 275 281 283 273 266 268 267 268 264 129 136 218 220 211 201 198 203 203 193 182 175 162 148 144 138 130 126 119 113 108 102 97 92 88 85 82 82 83 83 83 91 109 116 121 140 156 174 191 176 159 185 198 205 223 232 237 235 231 234 241 245 248 252 252 249 245 244 242 240
270 266 263 263 264 261 254 252 260 263 259 262 268 268 261 258 269 283 280 270 261 263 265 261 267 277 159 142 244 234 223 216 210 211 211 204 197 189 169 151 147 141 136 131 122 117 112 106 103 99 96 93 91 89 87 86 84 84 92 94 90 98 112 119 137 147 140 143 159 162 167 216 246 248 244 240 239 243 248 250 251 250 248 246 247 246
266 262 264 265 264 270 277 286 305 314 293 279 280 281 275 265 266 271 267 263 267 274 268 259 267 276 262 238 230 228 235 236 226 219 218 213 200 187 169 158 157 153 143 137 128 123 117 111 108 106 103 100 99 99 97 95 93 90 88 81 72 75 87 93 98 119 140 149 153 149 126 110 226 260 249 237 236 242 250 250 252 254 252 251 252 250
262 256 254 260 263 267 275 282 289 287 279 278 279 276 274 271 265 260 255 262 274 280 270 268 277 280 277 269 252 234 228 235 242 238 234 230 208 190 182 176 176 176 170 159 142 132 124 117 113 109 106 104 104 104 102 101 99 97 95 88 82 82 86 90 82 75 90 143 192 193 188 218 248 263 279 281 271 270 276 274 269 263 256 258 261 256
263 261 256 261 261 262 267 270 274 275 273 274 272 269 269 270 267 263 260 264 270 270 270 281 289 284 283 286 284 277 252 238 246 243 237 236 223 209 207 204 201 200 199 193 170 145 133 127 122 116 112 107 106 107 105 104 103 103 102 96 90 88 87 89 83 69 59 39 358 334 296 262 260 265 272 275 275 278 283 288 289 282 269 263 262 259
268 268 265 270 271 271 272 271 270 271 271 270 269 269 267 264 263 263 264 265 265 266 269 277 283 281 281 284 287 286 276 267 267 253 239 235 228 221 219 219 221 220 215 211 193 166 147 136 129 125 121 113 106 108 106 107 108 107 112 114 110 104 87 81 80 68 57 39 16 7 7 350 311 290 279 271 268 269 271 273 282 290 281 266 258 254
222 269 274 277 277 274 275 277 275 271 272 271 269 267 265 264 263 263 264 266 265 266 269 274 280 284 285 283 279 274 271 268 266 258 250 238 226 223 226 230 236 235 226 216 200 179 161 149 139 128 122 116 109 108 106 108 111 111 124 129 134 239 268 287 302 329 347 336 342 354 346 330 324 318 310 304 296 284 275 273 275 277 275 269 262 255
221 266 276 275 272 270 271 273 274 274 274 270 265 264 263 262 262 262 262 265 267 270 274 276 277 279 282 284 283 280 275 269 263 262 260 252 240 236 237 238 240 241 228 212 207 198 176 157 144 130 122 120 116 113 108 108 113 111 97 42 1 281 277 286 291 293 297 302 319 343 337 323 320 318 316 314 306 290 276 271 266 263 264 266 267 265
251 266 274 272 271 274 274 273 277 280 274 267 268 275 271 265 265 265 262 262 265 269 274 275 273 279 287 291 293 293 290 282 276 271 268 266 257 246 242 241 241 242 228 210 209 203 180 156 140 133 134 132 131 129 116 110 120 126 115 82 78 74 350 326 300 301 315 318 321 322 312 313 313 306 302 299 292 283 275 271 264 259 258 262 271 278
265 268 273 273 271 273 276 281 282 272 261 261 289 318 293 280 276 275 273 274 275 278 285 286 287 294 301 299 293 291 292 295 298 292 285 284 268 244 240 245 244 235 217 197 194 190 175 158 142 137 143 147 156 184 269 18 122 113 108 112 121 114 44 27 257 276 307 307 306 301 299 305 304 295 292 292 291 287 279 271 264 263 261 261 269 279
264 265 266 267 267 272 279 278 267 257 259 274 290 294 292 289 284 284 284 283 284 291 299 297 293 295 303 309 309 304 297 293 298 305 297 289 278 258 252 253 245 219 192 183 182 176 165 160 159 160 164 174 209 260 278 267 247 251 226 200 209 235 247 250 259 267 275 286 296 297 295 299 299 297 299 299 297 293 284 272 263 263 263 260 259 264
259 263 263 264 262 265 268 257 252 262 279 277 257 255 281 281 278 279 278 277 282 298 308 307 306 304 299 301 309 314 310 296 277 279 334 344 314 292 272 261 241 203 185 182 178 174 182 217 230 229 216 227 257 263 260 262 267 266 253 245 246 251 254 264 275 280 289 300 302 296 292 298 302 303 303 301 297 291 283 272 264 259 258 258 255 251
254 257 256 259 259 260 263 258 258 272 275 262 243 33 349 300 292 294 288 287 293 305 307 306 313 313 302 296 300 305 313 303 276 248 102 45 30 12 349 337 258 192 193 188 186 211 251 264 260 251 242 249 257 260 267 272 274 272 269 265 258 256 263 273 276 281 292 299 296 290 291 295 297 298 299 300 298 292 284 274 264 257 255 254 252 249
249 255 256 257 256 256 263 266 263 264 266 260 90 68 42 360 342 329 296 287 310 354 335 317 315 320 314 306 308 310 309 297 278 240 167 204 346 19 1 356 13 211 215 212 227 251 260 259 260 262 263 265 266 270 272 271 272 274 273 270 267 265 268 272 273 278 285 288 285 282 283 285 287 289 290 293 293 291 287 278 266 259 254 251 250 250
247 245 251 256 258 255 256 260 261 259 267 52 55 43 34 17 357 330 286 270 30 28 1 341 331 334 329 317 312 312 298 281 289 29 42 307 284 313 324 306 291 290 279 258 257 263 263 263 269 275 276 273 269 269 268 266 270 272 270 269 267 267 268 270 271 275 280 283 282 280 279 280 282 285 286 288 290 291 289 281 270 262 256 253 254 255
250 243 246 249 252 253 251 255 261 260 350 53 24 356 8 11 352 312 275 288 15 2 350 340 326 325 326 317 310 300 286 288 319 359 348 313 284 279 287 284 279 280 279 271 266 266 266 270 275 278 276 272 270 270 271 270 269 267 266 267 266 265 268 269 271 275 279 282 282 279 279 281 282 283 284 285 288 290 287 280 270 262 258 256 255 256
247 246 251 253 253 254 254 258 261 259 51 39 9 340 330 324 303 274 272 341 347 326 325 326 316 315 316 310 305 296 291 301 314 311 301 296 288 283 282 281 281 279 276 275 276 277 277 277 276 275 274 274 273 272 271 269 267 266 265 264 263 262 264 267 270 274 276 278 278 276 277 278 277 278 281 282 284 287 285 279 270 262 259 257 253 249
250 248 249 252 255 255 255 261 263 256 29 13 351 333 314 291 267 290 326 334 325 318 319 313 305 308 310 304 300 297 295 299 301 298 294 294 293 290 286 284 284 281 278 277 277 278 278 278 278 277 277 276 274 272 271 269 267 266 265 264 263 265 267 269 269 271 272 274 274 273 272 271 270 274 278 279 282 285 283 277 268 260 256 254 251 242
264 265 253 247 254 259 254 256 261 252 29 0 344 334 320 301 308 323 325 318 312 312 312 306 300 301 301 299 296 295 295 296 296 293 290 290 290 288 283 282 281 280 279 279 277 277 279 280 281 280 279 278 275 272 271 269 268 268 267 266 267 268 270 270 269 269 270 270 270 269 266 265 265 269 273 275 278 282 281 276 267 258 252 246 243 236
262 261 265 264 272 270 254 250 268 321 333 327 321 309 300 305 311 313 310 307 306 303 300 298 298 297 297 295 294 292 292 291 290 289 288 286 285 284 282 280 280 279 279 278 277 278 281 283 284 282 279 277 275 272 270 269 270 270 269 269 270 270 271 271 271 271 270 269 268 266 263 262 262 263 264 265 266 270 273 271 261 251 244 239 237 234
259 282 286 286 294 285 271 275 297 304 302 304 305 299 297 299 301 303 300 297 297 296 295 294 294 294 295 293 289 288 288 288 288 288 287 286 284 284 283 282 281 281 281 281 280 279 280 282 283 282 280 278 275 273 272 271 271 271 271 272 273 271 271 271 270 269 269 268 266 264 261 260 260 258 256 255 257 262 266 264 257 250 246 244 242 239
301 311 294 283 289 291 279 277 286 292 295 299 299 296 298 298 296 296 294 292 293 294 295 294 293 293 293 291 288 285 283 284 285 284 283 283 282 281 281 281 281 280 280 280 281 280 279 279 280 280 279 277 274 273 272 272 271 271 272 273 272 270 270 270 267 267 267 267 266 263 260 258 258 257 255 252 254 258 259 254 249 250 252 249 242 239
334 353 307 280 280 285 280 281 290 294 296 298 297 296 297 295 293 294 293 294 296 295 292 291 291 291 289 287 285 284 282 282 283 282 282 281 280 279 279 278 278 278 278 278 279 279 278 278 277 277 276 275 274 273 272 271 270 270 271 272 270 269 269 268 266 264 264 264 264 263 260 258 257 256 255 254 254 256 255 246 244 254 258 252 241 233
7 33 322 281 276 281 287 292 294 293 292 292 292 294 297 298 300 302 303 302 298 293 289 288 287 287 285 283 282 282 282 282 281 280 280 279 278 278 278 277 276 277 277 278 278 279 278 277 277 276 276 276 275 273 272 271 270 268 269 269 269 268 267 265 263 262 261 259 259 259 258 258 257 255 255 254 252 252 249 244 250 259 257 244 231 220
296 306 295 287 285 283 285 291 296 297 296 296 297 300 305 308 307 304 302 299 295 290 288 288 286 284 283 283 284 284 283 281 280 279 279 279 278 277 277 278 278 278 277 277 278 278 278 277 277 277 276 276 275 273 272 271 270 268 267 266 265 265 264 262 260 259 257 255 254 255 255 254 253 255 255 250 242 243 247 246 247 247 232 210 202 195
278 284 291 292 287 283 290 306 313 309 297 297 302 306 308 308 305 301 300 299 297 295 295 295 291 287 284 284 284 283 282 282 280 279 277 277 276 277 278 279 279 278 278 278 279 278 277 276 276 276 276 276 275 274 273 272 270 268 266 264 262 261 259 259 259 257 255 252 250 250 250 248 247 248 244 236 234 243 247 236 217 206 200 190 181 172
284 312 315 300 289 289 298 308 311 305 295 297 303 307 307 307 304 302 302 303 302 301 302 300 297 293 289 288 286 284 283 284 283 280 278 276 275 276 278 279 280 281 282 282 281 279 278 278 279 279 278 277 277 276 274 272 270 267 264 261 260 257 254 255 254 252 252 250 247 246 244 240 240 239 232 227 233 238 230 207 185 180 182 177 169 163